Racecast

Jessica Benore

Temperance Bedford (MI) · 12 · SECMI D1MONROE · Compare head to head

Athlete rating 97.6 2015 XC season
Best race 117.7 XC
Races 49
Seasons 7 2010 — 2016

RankedNation #86716·MI #4834·MI D1 #2758·SEC #242·Team #117 ?

Rating scale ?
Speed rating — all races

Cross Country

XC speed rating

2015 XC 95.3

Temperance Bedford (MI) · Grade 12

Date Meet Event Result Place Rating Difficulty PR/SR Flags
2015-10-31 Lake Erie Metro Park OFFICIAL 5000m 25:41 120th · 20th on team 96.5 +0.007 CSR
2015-10-22 Hudson Mills Metropark - OFFICIAL 5000m 25:51.9 124th · 19th on team 94.8 -0.006
2015-10-17 Hudson Mills Metropark - OFFICIAL 5000m 24:11.9 118th · 8th on team 101.1 -0.006 ★CR SR CSR RSR
2015-10-03 Pearson's Metro Park 5000m 24:55.7 22nd · 22nd on team 99.1 +0.001 SR CSR RSR
2015-09-29 Indian Creek OFFICIAL 5000m 25:38.1 76th · 13th on team 96.6 +0.004 SR CSR RSR
2015-09-19 Springfield Oaks County Park OFFICIAL 5000m 26:47 41st · 12th on team 94.2 +0.019 ★CR CSR RSR
2015-09-10 Munson Park 5000m 26:31.5 88th · 9th on team 93.9 +0.007 SR CSR RSR
2015-08-29 Boy Scout Camp Lakota 5000m 27:47.73 142nd · 18th on team 89.4 +0.014 ★CR CSR
2015-08-27 Heritage Park (Adrian) OFFICIAL 5000m 27:12.6 80th · 18th on team 92.2 +0.035 SR CSR RSR

2014 XC 95.7

Temperance Bedford (MI) · Grade 11

Date Meet Event Result Place Rating Difficulty PR/SR Flags
2014-10-25 Lake Erie Metro Park OFFICIAL 5000m 25:30.3 74th · 9th on team 97.9 +0.007 CSR
2014-10-04 Portage West MS 5000m 24:38 157th · 11th on team 99.7 -0.003 ★CR SR CSR RSR
2014-09-23 Huron Meadows Metropark OFFICIAL 5000m 25:18.9 66th · 10th on team 98.2 -0.004 ★CR SR CSR RSR
2014-09-09 Hudson Mills Metropark - OFFICIAL 5000m 27:40.3 113th · 14th on team 89.2 -0.006 CSR
2014-09-06 Hedges Boyer Park 5000m 25:35.4 287th · 10th on team 95.6 -0.003 SR CSR RSR
2014-08-28 Heritage Park (Adrian) OFFICIAL 5000m 27:12.4 48th · 17th on team 93.3 +0.035 ★CR SR CSR RSR

2013 XC 98.6

Temperance Bedford (MI) · Grade 10

Date Meet Event Result Place Rating Difficulty PR/SR Flags
2013-10-26 Lake Erie Metro Park OFFICIAL 5000m 24:31 29th · 19th on team 102.1 +0.007 ★CR CSR
2013-10-17 Hudson Mills Metropark - OFFICIAL 5000m 25:03.4 128th · 24th on team 97.3 -0.006 CSR
2013-09-28 Pearson's Metro Park 5000m 25:05.3 91st · 16th on team 99.3 +0.001 CSR
2013-09-13 Forest Akers East Golf Course 5000m 23:49 157th · 19th on team 104.2 +0.019 ★CR SR CSR RSR
2013-09-10 Pioneer HS 5000m 27:39.1 93rd · 17th on team 91.2 +0.018 ★CR CSR
2013-09-07 Hedges Boyer Park 5000m 24:52.1 235th · 11th on team 100.3 -0.003 ★CR SR CSR RSR
2013-08-24 Island Lake Recreation Area OFFICIAL 5000m 26:29 56th · 28th on team 95.9 +0.016 ★CR SR CSR RSR

2012 XC 101.8

Temperance Bedford (MI) · Grade 9

Date Meet Event Result Place Rating Difficulty PR/SR Flags
2012-10-18 Hudson Mills Metropark - OFFICIAL 5000m 24:23.2 104th · 15th on team 101.6 -0.006 CR CSR
2012-09-29 Pearson's Metro Park 5000m 23:22.8 31st · 7th on team 105.7 +0.001 ★CR CSR
2012-09-27 Munson Park 5000m 22:44.8 31st · 4th on team 108.6 +0.007 ★PR ★CR SR CSR RSR
2012-09-11 Indian Creek OFFICIAL 5000m 24:04.8 52nd · 7th on team 103.6 +0.004 PR ★CR SR CSR RSR
2012-09-08 Hedges Boyer Park 5000m 25:46.6 296th · 8th on team 96.4 -0.003 PR CR SR CSR RSR
2012-08-25 Island Lake Recreation Area OFFICIAL 5000m 26:43 35th · 21st on team 94.7 +0.016 PR CR SR CSR RSR

2011 XC 110.7

Temperance Bedford (MI) · Grade 8

Date Meet Event Result Place Rating Difficulty PR/SR Flags
2011-10-22 Willow Metropark OFFICIAL 2414m 14:04 48th · 8th on team 88.3 -0.004 ★PR ★CR SR CSR
2011-10-15 Munson Park 3200m 14:40 9th · 4th on team 116.2 +0.000
2011-10-12 Munson Park 3200m 14:06.8 20th · 7th on team 117.7 +0.000 ★PR ★CR ★R SR CSR RSR
2011-10-08 Portage West MS 2172m 10:51.6 90th · 5th on team 103.9 ★PR ★CR SR CSR
2011-09-28 Hudson Mills Metropark - OFFICIAL 3200m 14:38 27th · 8th on team 115.9 +0.020 ★CR R CSR RSR
2011-09-16 Forest Akers East Golf Course 3200m 14:28 59th · 7th on team 114.5 +0.012 PR ★CR SR CSR
2011-09-14 Rolling Hills 3200m 14:58.4 19th · 6th on team 115.1 +0.023 PR ★CR R SR CSR RSR
2011-09-10 Hedges Boyer Park 2172m 14:51.5 125th · 7th on team 113.6 PR ★CR R SR CSR RSR

2010 XC 88.0

Temperance Bedford (MI) · Grade 7

Date Meet Event Result Place Rating Difficulty PR/SR Flags
2010-10-23 Willow Metropark OFFICIAL 2414m 14:50.6 3rd · 2nd on team 83.2 -0.004 PR CR SR CSR
2010-10-09 Portage West MS 1850m 12:14 236th · 10th on team 76.8 ★PR ★CR SR CSR
2010-09-17 Forest Akers East Golf Course 2655m 15:29 87th · 9th on team 89.7 ★PR ★CR SR CSR
2010-09-11 Hedges Boyer Park 2253m 16:18.7 161st · 4th on team 102.3 ★PR ★CR R SR CSR RSR

Track & Field

TF speed rating

2016 TF 93.2

Temperance Bedford (MI) · Grade 12

Date Meet Event Result Place Rating Difficulty PR/SR Flags
2016-05-03 SEC Tri: Huron/Skyline @ Bedford 800m 3:15.77 16th · 8th on team 93.5 -0.026 SR
2016-04-26 Bedford @ Monroe 800m 3:23.4 13th · 9th on team 91.0 -0.022
2016-04-19 Saline @ Bedford 800m 3:17.73 18th · 9th on team 93.5 -0.026
2016-04-12 SEC: Bedford @ Pioneer 800m 3:16.64 12th · 7th on team 94.7 -0.017 SR RSR

2015 TF 99.0

Temperance Bedford (MI) · Grade 11

Date Meet Event Result Place Rating Difficulty PR/SR Flags
2015-05-12 SEC: Bedford @ Huron 800m 3:06.4 3rd · 3rd on team 100.5 -0.024 ★PR SR
2015-04-21 SEC: Bedford @ Pioneer 1600m 7:02.8 19th · 13th on team 100.5 -0.017 ★PR SR RSR
2015-04-21 SEC: Bedford @ Pioneer 800m 3:16.04 16th · 11th on team 96.0 -0.017 SR

2013 TF 96.1

Temperance Bedford (MI) · Grade 9

Date Meet Event Result Place Rating Difficulty PR/SR Flags
2013-04-23 Pioneer vs. Bedford 1600m 7:16.71 17th · 12th on team 96.0 -0.017 PR SR RSR
2013-04-23 Pioneer vs. Bedford 800m 3:13.17 11th · 5th on team 96.3 -0.017 PR SR RSR